| time (UTC) | temp C | wind direction | speed KPH | gust KPH | rain 1hr cm | rain 24hr cm | rain mn cm | humidity % | barometer mb |
| 20260506231342 | 9 | 97 | 3.2 | 4.8 | 0.00 | 0.66 | 0.66 | 89 | 1040.9 |
| 20260506230839 | 9 | 18 | 4.8 | 9.7 | 0.00 | 0.66 | 0.66 | 88 | 1040.6 |
| 20260506230336 | 9 | 305 | 0.0 | 1.6 | 0.00 | 0.66 | 0.66 | 89 | 1040.8 |
| 20260506225832 | 9 | 322 | 1.6 | 3.2 | 0.00 | 0.66 | 0.66 | 89 | 1040.5 |
| 20260506225329 | 9 | 277 | 1.6 | 11.3 | 0.00 | 0.66 | 0.66 | 90 | 1040.3 |
| 20260506224826 | 9 | 358 | 3.2 | 3.2 | 0.00 | 0.66 | 0.66 | 91 | 1040.3 |
| 20260506224323 | 9 | 84 | 4.8 | 4.8 | 0.00 | 0.66 | 0.66 | 91 | 1040.1 |
| 20260506223820 | 9 | 267 | 6.4 | 9.7 | 0.00 | 0.66 | 0.66 | 91 | 1040.3 |
| 20260506223315 | 9 | 257 | 4.8 | 4.8 | 0.00 | 0.66 | 0.66 | 91 | 1039.9 |
| 20260506222813 | 10 | 160 | 6.4 | 12.9 | 0.00 | 0.66 | 0.66 | 91 | 1039.7 |
| 20260506222308 | 10 | 284 | 3.2 | 6.4 | 0.00 | 0.66 | 0.66 | 90 | 1039.6 |
| 20260506221806 | 10 | 213 | 3.2 | 3.2 | 0.00 | 0.66 | 0.66 | 90 | 1039.6 |
| 20260506221303 | 10 | 331 | 8.0 | 9.7 | 0.00 | 0.66 | 0.66 | 90 | 1039.3 |
| 20260506220801 | 10 | 354 | 4.8 | 12.9 | 0.00 | 0.66 | 0.66 | 90 | 1039.3 |
| 20260506220255 | 10 | 301 | 17.7 | 40.2 | 0.00 | 0.66 | 0.66 | 90 | 1039.3 |
| 20260506215752 | 10 | 241 | 9.7 | 17.7 | 0.05 | 0.66 | 0.66 | 92 | 1038.8 |
| 20260506215248 | 10 | 321 | 9.7 | 24.1 | 0.05 | 0.66 | 0.66 | 92 | 1038.7 |
| 20260506214744 | 10 | 286 | 9.7 | 27.4 | 0.00 | 0.66 | 0.66 | 92 | 1038.5 |
| 20260506214241 | 10 | 269 | 24.1 | 30.6 | 0.05 | 0.66 | 0.66 | 93 | 1038.1 |
| 20260506213740 | 10 | 279 | 24.1 | 30.6 | 0.05 | 0.66 | 0.66 | 93 | 1037.9 |
| 20260506213232 | 11 | 318 | 24.1 | 29.0 | 0.00 | 0.64 | 0.64 | 92 | 1037.9 |
| 20260506212729 | 11 | 308 | 24.1 | 27.4 | 0.00 | 0.64 | 0.64 | 92 | 1037.9 |
| 20260506212224 | 11 | 275 | 20.9 | 30.6 | 0.00 | 0.64 | 0.64 | 91 | 1037.3 |
| 20260506211719 | 11 | 294 | 19.3 | 33.8 | 0.00 | 0.64 | 0.64 | 91 | 1037.5 |
| 20260506211216 | 11 | 285 | 17.7 | 25.7 | 0.00 | 0.64 | 0.64 | 91 | 1037.3 |
| 20260506210713 | 11 | 283 | 19.3 | 25.7 | 0.00 | 0.64 | 0.64 | 91 | 1037.0 |
| 20260506210210 | 12 | 310 | 19.3 | 25.7 | 0.00 | 0.64 | 0.64 | 91 | 1037.3 |
| 20260506205707 | 12 | 271 | 19.3 | 30.6 | 0.00 | 0.64 | 0.64 | 92 | 1037.2 |
| 20260506205202 | 12 | 296 | 16.1 | 25.7 | 0.18 | 0.64 | 0.64 | 92 | 1037.0 |
| 20260506204700 | 14 | 242 | 16.1 | 30.6 | 0.18 | 0.64 | 0.64 | 92 | 1037.1 |
| 20260506204156 | 15 | 238 | 9.7 | 16.1 | 0.00 | 0.61 | 0.61 | 93 | 1036.7 |
| 20260506203655 | 15 | 242 | 3.2 | 11.3 | 0.00 | 0.61 | 0.61 | 93 | 1036.7 |
| 20260506203152 | 15 | 207 | 8.0 | 12.9 | 0.00 | 0.61 | 0.61 | 93 | 1036.6 |
| 20260506202650 | 15 | 183 | 6.4 | 16.1 | 0.00 | 0.61 | 0.61 | 94 | 1036.7 |
| 20260506202145 | 15 | 227 | 9.7 | 12.9 | 0.00 | 0.61 | 0.61 | 94 | 1036.9 |
| 20260506201643 | 15 | 248 | 9.7 | 12.9 | 0.00 | 0.61 | 0.61 | 93 | 1037.0 |
| 20260506201139 | 15 | 257 | 4.8 | 14.5 | 0.00 | 0.61 | 0.61 | 94 | 1036.8 |
| 20260506200636 | 15 | 257 | 4.8 | 17.7 | 0.00 | 0.61 | 0.61 | 94 | 1036.9 |
| 20260506200133 | 15 | 256 | 8.0 | 11.3 | 0.00 | 0.61 | 0.61 | 94 | 1036.9 |
| 20260506195629 | 15 | 180 | 14.5 | 17.7 | 0.00 | 0.61 | 0.61 | 94 | 1037.2 |
| 20260506195125 | 15 | 256 | 14.5 | 27.4 | 0.00 | 0.61 | 0.61 | 94 | 1037.1 |
| 20260506194623 | 15 | 192 | 14.5 | 22.5 | 0.00 | 0.61 | 0.61 | 95 | 1037.1 |
| 20260506194119 | 15 | 234 | 14.5 | 17.7 | 0.00 | 0.61 | 0.61 | 95 | 1037.2 |
| 20260506193617 | 15 | 256 | 6.4 | 11.3 | 0.00 | 0.61 | 0.61 | 95 | 1037.2 |
| 20260506193114 | 15 | 237 | 9.7 | 16.1 | 0.00 | 0.61 | 0.61 | 95 | 1037.0 |
| 20260506192610 | 15 | 256 | 9.7 | 14.5 | 0.00 | 0.61 | 0.61 | 95 | 1037.1 |
| 20260506192101 | 15 | 244 | 4.8 | 16.1 | 0.00 | 0.61 | 0.61 | 95 | 1037.2 |
| 20260506191557 | 15 | 222 | 6.4 | 9.7 | 0.00 | 0.61 | 0.61 | 95 | 1037.4 |
| 20260506191053 | 15 | 228 | 6.4 | 9.7 | 0.00 | 0.61 | 0.61 | 95 | 1037.1 |
| 20260506190551 | 15 | 188 | 14.5 | 22.5 | 0.00 | 0.61 | 0.61 | 95 | 1037.4 |
| 20260506190047 | 15 | 242 | 6.4 | 12.9 | 0.00 | 0.61 | 0.61 | 95 | 1037.4 |
| 20260506185544 | 15 | 261 | 4.8 | 11.3 | 0.00 | 0.61 | 0.61 | 95 | 1037.4 |
| 20260506185036 | 15 | 262 | 3.2 | 9.7 | 0.00 | 0.61 | 0.61 | 95 | 1037.3 |
| 20260506184533 | 15 | 212 | 9.7 | 20.9 | 0.00 | 0.61 | 0.61 | 95 | 1037.7 |
| 20260506184030 | 15 | 249 | 6.4 | 11.3 | 0.00 | 0.61 | 0.61 | 95 | 1037.7 |
| 20260506183525 | 15 | 232 | 6.4 | 14.5 | 0.00 | 0.61 | 0.61 | 95 | 1037.7 |
| 20260506183023 | 14 | 229 | 6.4 | 16.1 | 0.00 | 0.61 | 0.61 | 95 | 1037.7 |
| 20260506182520 | 14 | 226 | 12.9 | 20.9 | 0.00 | 0.61 | 0.61 | 95 | 1037.8 |
| 20260506182017 | 14 | 232 | 12.9 | 16.1 | 0.00 | 0.61 | 0.61 | 95 | 1037.8 |
| 20260506181515 | 14 | 214 | 11.3 | 14.5 | 0.00 | 0.61 | 0.61 | 95 | 1038.0 |
| 20260506181012 | 14 | 273 | 8.0 | 16.1 | 0.00 | 0.61 | 0.61 | 95 | 1037.8 |
| 20260506180508 | 14 | 225 | 11.3 | 20.9 | 0.00 | 0.61 | 0.61 | 95 | 1037.5 |
| 20260506180006 | 14 | 249 | 9.7 | 12.9 | 0.00 | 0.61 | 0.61 | 95 | 1037.7 |
| 20260506175502 | 15 | 257 | 6.4 | 11.3 | 0.00 | 0.61 | 0.61 | 95 | 1037.8 |
| 20260506174958 | 15 | 251 | 4.8 | 6.4 | 0.00 | 0.61 | 0.61 | 95 | 1037.5 |
| 20260506174456 | 14 | 244 | 4.8 | 12.9 | 0.00 | 0.61 | 0.61 | 95 | 1037.7 |
| 20260506173946 | 15 | 257 | 6.4 | 9.7 | 0.00 | 0.61 | 0.61 | 95 | 1037.5 |
| 20260506173443 | 15 | 235 | 4.8 | 12.9 | 0.13 | 0.61 | 0.61 | 95 | 1037.5 |
| 20260506172935 | 15 | 225 | 6.4 | 12.9 | 0.13 | 0.61 | 0.61 | 95 | 1037.8 |
| 20260506172432 | 14 | 258 | 8.0 | 12.9 | 0.00 | 0.58 | 0.58 | 95 | 1037.7 |
| 20260506171928 | 14 | 247 | 8.0 | 9.7 | 0.18 | 0.58 | 0.58 | 95 | 1037.8 |
| 20260506171426 | 14 | 233 | 3.2 | 9.7 | 0.18 | 0.58 | 0.58 | 95 | 1037.8 |
| 20260506170923 | 14 | 255 | 4.8 | 11.3 | 0.13 | 0.56 | 0.56 | 95 | 1037.9 |
| 20260506170419 | 14 | 258 | 3.2 | 12.9 | 0.18 | 0.53 | 0.53 | 95 | 1037.9 |
| 20260506165913 | 15 | 243 | 6.4 | 12.9 | 0.30 | 0.53 | 0.53 | 95 | 1037.8 |
| 20260506165411 | 14 | 265 | 6.4 | 11.3 | 0.30 | 0.51 | 0.51 | 95 | 1037.9 |
| 20260506164906 | 14 | 245 | 6.4 | 11.3 | 0.18 | 0.48 | 0.48 | 95 | 1037.9 |
| 20260506164402 | 14 | 246 | 4.8 | 6.4 | 0.13 | 0.46 | 0.46 | 95 | 1037.9 |
| 20260506163901 | 15 | 251 | 3.2 | 6.4 | 0.13 | 0.46 | 0.46 | 95 | 1038.0 |
| 20260506163356 | 15 | 269 | 3.2 | 6.4 | 0.00 | 0.43 | 0.43 | 95 | 1037.8 |
| 20260506162851 | 15 | 263 | 3.2 | 9.7 | 0.00 | 0.43 | 0.43 | 95 | 1037.9 |
| 20260506162349 | 15 | 242 | 3.2 | 6.4 | 0.00 | 0.43 | 0.43 | 95 | 1037.9 |
| 20260506161841 | 15 | 236 | 4.8 | 9.7 | 0.00 | 0.43 | 0.43 | 95 | 1037.9 |
| 20260506161338 | 15 | 258 | 4.8 | 9.7 | 0.00 | 0.43 | 0.43 | 95 | 1037.8 |
| 20260506160835 | 15 | 240 | 3.2 | 4.8 | 0.18 | 0.43 | 0.43 | 95 | 1037.9 |
| 20260506160332 | 15 | 250 | 3.2 | 6.4 | 0.36 | 0.43 | 0.43 | 95 | 1037.9 |
| 20260506155830 | 15 | 235 | 3.2 | 11.3 | 0.30 | 0.41 | 0.41 | 95 | 1038.2 |
| 20260506155326 | 15 | 238 | 6.4 | 9.7 | 0.30 | 0.38 | 0.38 | 95 | 1038.2 |
| 20260506153439 | 15 | 224 | 4.8 | 11.3 | 0.30 | 0.28 | 0.28 | 94 | 1038.2 |
| 20260506152937 | 15 | 246 | 8.0 | 11.3 | 0.30 | 0.25 | 0.25 | 94 | 1038.4 |
| 20260506152433 | 15 | 224 | 6.4 | 11.3 | 0.13 | 0.23 | 0.23 | 94 | 1038.3 |
| 20260506151932 | 15 | 229 | 8.0 | 11.3 | 0.00 | 0.20 | 0.20 | 94 | 1038.1 |
| 20260506151428 | 15 | 212 | 9.7 | 11.3 | 0.18 | 0.20 | 0.20 | 94 | 1038.3 |
| 20260506150921 | 15 | 251 | 4.8 | 4.8 | 0.18 | 0.20 | 0.20 | 94 | 1038.2 |
| 20260506150416 | 15 | 220 | 4.8 | 4.8 | 0.13 | 0.18 | 0.18 | 94 | 1038.2 |
| 20260506145914 | 15 | 231 | 3.2 | 6.4 | 0.13 | 0.18 | 0.18 | 94 | 1038.0 |
| 20260506145409 | 15 | 232 | 1.6 | 3.2 | 0.00 | 0.15 | 0.15 | 94 | 1038.0 |
| 20260506144907 | 15 | 248 | 4.8 | 4.8 | 0.18 | 0.15 | 0.15 | 93 | 1038.0 |
| 20260506144403 | 15 | 251 | 4.8 | 4.8 | 0.18 | 0.15 | 0.15 | 93 | 1038.2 |
| 20260506143902 | 15 | 239 | 3.2 | 6.4 | 0.00 | 0.13 | 0.13 | 93 | 1038.2 |
| 20260506143359 | 15 | 259 | 3.2 | 6.4 | 0.00 | 0.13 | 0.13 | 94 | 1038.1 |
| 20260506142857 | 15 | 247 | 1.6 | 4.8 | 0.13 | 0.13 | 0.13 | 94 | 1038.3 |
| 20260506142355 | 15 | 258 | 1.6 | 3.2 | 0.13 | 0.13 | 0.13 | 94 | 1038.0 |
| 20260506141853 | 15 | 245 | 1.6 | 4.8 | 0.18 | 0.10 | 0.10 | 94 | 1038.2 |
| 20260506141350 | 14 | 252 | 1.6 | 1.6 | 0.18 | 0.10 | 0.10 | 94 | 1038.4 |
| 20260506140848 | 15 | 259 | 0.0 | 0.0 | 0.00 | 0.08 | 0.08 | 94 | 1038.3 |
| 20260506140345 | 14 | 263 | 1.6 | 6.4 | 0.00 | 0.08 | 0.08 | 93 | 1038.6 |
| 20260506135842 | 14 | 261 | 3.2 | 4.8 | 0.00 | 0.08 | 0.08 | 93 | 1038.7 |
| 20260506135339 | 15 | 243 | 1.6 | 6.4 | 0.00 | 0.08 | 0.08 | 93 | 1038.8 |
| 20260506134835 | 15 | 260 | 3.2 | 9.7 | 0.00 | 0.08 | 0.08 | 92 | 1038.5 |
| 20260506134331 | 15 | 261 | 0.0 | 1.6 | 0.00 | 0.08 | 0.08 | 92 | 1038.8 |
| 20260506133829 | 15 | 222 | 3.2 | 3.2 | 0.00 | 0.08 | 0.08 | 91 | 1039.0 |
| 20260506133325 | 15 | 228 | 4.8 | 4.8 | 0.00 | 0.08 | 0.08 | 91 | 1039.0 |
| 20260506132822 | 15 | 230 | 3.2 | 4.8 | 0.00 | 0.08 | 0.08 | 90 | 1039.0 |
| 20260506132319 | 15 | 249 | 1.6 | 4.8 | 0.00 | 0.08 | 0.08 | 89 | 1039.0 |
| 20260506131817 | 15 | 211 | 6.4 | 9.7 | 0.00 | 0.08 | 0.08 | 88 | 1039.1 |
| 20260506131313 | 15 | 256 | 3.2 | 6.4 | 0.23 | 0.08 | 0.08 | 87 | 1039.2 |
| 20260506130810 | 15 | 226 | 6.4 | 14.5 | 0.23 | 0.08 | 0.08 | 86 | 1039.2 |
| 20260506130307 | 15 | 237 | 4.8 | 12.9 | 0.00 | 0.05 | 0.05 | 86 | 1039.3 |
| 20260506125805 | 15 | 229 | 3.2 | 12.9 | 0.13 | 0.05 | 0.05 | 84 | 1039.3 |
| 20260506125305 | 15 | 187 | 9.7 | 14.5 | 0.13 | 0.05 | 0.05 | 83 | 1039.0 |
| 20260506124801 | 16 | 203 | 6.4 | 14.5 | 0.00 | 0.03 | 0.03 | 82 | 1038.9 |
| 20260506124258 | 16 | 216 | 4.8 | 16.1 | 0.13 | 0.03 | 0.03 | 79 | 1038.7 |
| 20260506123755 | 16 | 70 | 4.8 | 12.9 | 0.13 | 0.03 | 0.03 | 78 | 1038.5 |
| 20260506123254 | 16 | 222 | 6.4 | 11.3 | 0.00 | 0.00 | 0.00 | 76 | 1038.3 |
| 20260506122750 | 16 | 249 | 3.2 | 9.7 | 0.00 | 0.00 | 0.00 | 74 | 1038.2 |
| 20260506122247 | 17 | 262 | 4.8 | 14.5 | 0.00 | 0.00 | 0.00 | 72 | 1038.2 |
| 20260506121745 | 17 | 199 | 3.2 | 12.9 | 0.00 | 0.00 | 0.00 | 70 | 1038.5 |
| 20260506121242 | 17 | 210 | 3.2 | 9.7 | 0.00 | 0.00 | 0.00 | 68 | 1038.5 |
| 20260506120739 | 16 | 241 | 4.8 | 9.7 | 0.00 | 0.00 | 0.00 | 67 | 1038.4 |
| 20260506120237 | 17 | 256 | 1.6 | 3.2 | 0.00 | 0.00 | 0.00 | 67 | 1038.8 |
| 20260506115735 | 16 | 239 | 3.2 | 4.8 | 0.00 | 0.00 | 0.00 | 66 | 1038.8 |
| 20260506115233 | 17 | 254 | 1.6 | 4.8 | 0.00 | 0.00 | 0.00 | 65 | 1038.6 |
| 20260506114730 | 17 | 254 | 1.6 | 4.8 | 0.00 | 0.00 | 0.00 | 65 | 1038.5 |
| 20260506114227 | 17 | 254 | 1.6 | 3.2 | 0.00 | 0.00 | 0.00 | 64 | 1038.4 |
| 20260506113726 | 17 | 245 | 1.6 | 6.4 | 0.00 | 0.00 | 0.00 | 64 | 1038.6 |
| 20260506113223 | 17 | 250 | 1.6 | 6.4 | 0.00 | 0.00 | 0.00 | 64 | 1038.6 |
| 20260506112719 | 17 | 240 | 1.6 | 3.2 | 0.00 | 0.00 | 0.00 | 65 | 1038.5 |
| 20260506112217 | 17 | 255 | 3.2 | 4.8 | 0.00 | 0.00 | 0.00 | 64 | 1038.6 |
| 20260506111714 | 17 | 254 | 1.6 | 3.2 | 0.00 | 0.00 | 0.00 | 64 | 1038.4 |
| 20260506111213 | 17 | 222 | 6.4 | 6.4 | 0.00 | 0.00 | 0.00 | 64 | 1038.4 |
| 20260506110709 | 16 | 233 | 4.8 | 4.8 | 0.00 | 0.00 | 0.00 | 63 | 1038.7 |
| 20260506110207 | 16 | 249 | 3.2 | 4.8 | 0.00 | 0.00 | 0.00 | 63 | 1038.5 |
| 20260506105703 | 17 | 249 | 1.6 | 3.2 | 0.00 | 0.00 | 0.00 | 63 | 1038.4 |
| 20260506105200 | 17 | 256 | 3.2 | 11.3 | 0.00 | 0.00 | 0.00 | 61 | 1038.3 |
| 20260506104658 | 17 | 260 | 0.0 | 3.2 | 0.00 | 0.00 | 0.00 | 61 | 1038.2 |
| 20260506104155 | 16 | 258 | 1.6 | 1.6 | 0.00 | 0.00 | 0.00 | 61 | 1038.1 |
| 20260506103652 | 17 | 265 | 1.6 | 3.2 | 0.00 | 0.00 | 0.00 | 61 | 1037.9 |
| 20260506103149 | 17 | 260 | 0.0 | 3.2 | 0.00 | 0.00 | 0.00 | 60 | 1038.0 |
| 20260506102647 | 17 | 259 | 0.0 | 3.2 | 0.00 | 0.00 | 0.00 | 60 | 1038.0 |
| 20260506102144 | 17 | 252 | 0.0 | 1.6 | 0.00 | 0.00 | 0.00 | 59 | 1038.1 |
| 20260506101641 | 17 | 257 | 1.6 | 3.2 | 0.00 | 0.00 | 0.00 | 59 | 1037.9 |
| 20260506101138 | 17 | 246 | 0.0 | 1.6 | 0.00 | 0.00 | 0.00 | 58 | 1038.1 |
| 20260506100637 | 17 | 255 | 1.6 | 1.6 | 0.00 | 0.00 | 0.00 | 57 | 1038.0 |
| 20260506100134 | 17 | 256 | 1.6 | 3.2 | 0.00 | 0.00 | 0.00 | 57 | 1038.1 |
| 20260506095633 | 17 | 242 | 3.2 | 4.8 | 0.00 | 0.00 | 0.00 | 57 | 1038.0 |
| 20260506095129 | 17 | 242 | 1.6 | 4.8 | 0.00 | 0.00 | 0.00 | 57 | 1038.2 |
| 20260506094626 | 17 | 250 | 3.2 | 3.2 | 0.00 | 0.00 | 0.00 | 56 | 1038.3 |
| 20260506094124 | 17 | 249 | 0.0 | 0.0 | 0.00 | 0.00 | 0.00 | 56 | 1038.2 |
| 20260506093623 | 17 | 263 | 0.0 | 0.0 | 0.00 | 0.00 | 0.00 | 56 | 1038.1 |
| 20260506093119 | 17 | 260 | 0.0 | 0.0 | 0.00 | 0.00 | 0.00 | 55 | 1037.9 |
| 20260506092617 | 17 | 262 | 0.0 | 0.0 | 0.00 | 0.00 | 0.00 | 55 | 1038.1 |
| 20260506092114 | 17 | 260 | 0.0 | 0.0 | 0.00 | 0.00 | 0.00 | 55 | 1037.9 |
| 20260506091612 | 16 | 264 | 0.0 | 0.0 | 0.00 | 0.00 | 0.00 | 56 | 1038.1 |
| 20260506091109 | 17 | 268 | 0.0 | 0.0 | 0.00 | 0.00 | 0.00 | 56 | 1038.0 |
| 20260506090607 | 16 | 264 | 0.0 | 0.0 | 0.00 | 0.00 | 0.00 | 57 | 1038.2 |
| 20260506085600 | 16 | 283 | 0.0 | 0.0 | 0.00 | 0.00 | 0.00 | 60 | 1038.4 |
| 20260506085056 | 16 | 282 | 0.0 | 0.0 | 0.00 | 0.00 | 0.00 | 59 | 1038.2 |
| 20260506084553 | 16 | 273 | 0.0 | 0.0 | 0.00 | 0.00 | 0.00 | 58 | 1038.3 |
| 20260506084049 | 16 | 262 | 0.0 | 0.0 | 0.00 | 0.00 | 0.00 | 56 | 1038.4 |
| 20260506083547 | 16 | 258 | 0.0 | 0.0 | 0.00 | 0.00 | 0.00 | 56 | 1038.6 |
| 20260506083044 | 16 | 263 | 0.0 | 0.0 | 0.00 | 0.00 | 0.00 | 56 | 1038.5 |
| 20260506082541 | 16 | 263 | 0.0 | 0.0 | 0.00 | 0.00 | 0.00 | 55 | 1038.3 |
| 20260506082036 | 17 | 258 | 0.0 | 0.0 | 0.00 | 0.00 | 0.00 | 55 | 1038.5 |
| 20260506081535 | 17 | 249 | 0.0 | 0.0 | 0.00 | 0.00 | 0.00 | 54 | 1038.3 |
| 20260506081032 | 17 | 265 | 0.0 | 0.0 | 0.00 | 0.00 | 0.00 | 53 | 1038.3 |
| 20260506080530 | 17 | 254 | 0.0 | 0.0 | 0.00 | 0.00 | 0.00 | 53 | 1038.1 |
| 20260506073513 | 17 | 262 | 0.0 | 0.0 | 0.00 | 0.00 | 0.00 | 53 | 1038.4 |
| 20260506073010 | 17 | 262 | 0.0 | 0.0 | 0.00 | 0.00 | 0.00 | 53 | 1038.5 |
| 20260506072507 | 17 | 260 | 0.0 | 0.0 | 0.00 | 0.00 | 0.00 | 53 | 1038.5 |
| 20260506072005 | 17 | 258 | 0.0 | 0.0 | 0.00 | 0.00 | 0.00 | 52 | 1038.7 |
| 20260506071503 | 17 | 259 | 0.0 | 0.0 | 0.00 | 0.00 | 0.00 | 52 | 1038.8 |
| 20260506070959 | 17 | 262 | 0.0 | 0.0 | 0.00 | 0.00 | 0.00 | 54 | 1038.8 |
| 20260506070456 | 16 | 264 | 0.0 | 0.0 | 0.00 | 0.00 | 0.00 | 55 | 1038.6 |
| 20260506062434 | 16 | 269 | 0.0 | 0.0 | 0.00 | 0.00 | 0.00 | 58 | 1038.8 |
| 20260506061930 | 16 | 271 | 0.0 | 0.0 | 0.00 | 0.00 | 0.00 | 60 | 1038.7 |
| 20260506061426 | 16 | 271 | 0.0 | 0.0 | 0.00 | 0.00 | 0.00 | 61 | 1038.9 |
| 20260506060925 | 16 | 264 | 0.0 | 0.0 | 0.00 | 0.00 | 0.00 | 60 | 1039.0 |
| 20260506060423 | 16 | 257 | 0.0 | 1.6 | 0.00 | 0.00 | 0.00 | 59 | 1039.1 |
| 20260506051354 | 16 | 268 | 0.0 | 0.0 | 0.00 | 0.00 | 0.00 | 61 | 1039.3 |
| 20260506050851 | 16 | 268 | 0.0 | 0.0 | 0.00 | 0.00 | 0.00 | 62 | 1039.4 |
| 20260506050349 | 16 | 266 | 0.0 | 0.0 | 0.00 | 0.00 | 0.00 | 62 | 1039.5 |
| 20260506044839 | 17 | 264 | 0.0 | 0.0 | 0.00 | 0.00 | 0.00 | 59 | 1039.3 |
| 20260506044337 | 17 | 263 | 0.0 | 0.0 | 0.00 | 0.00 | 0.00 | 59 | 1039.5 |
| 20260506043834 | 17 | 264 | 0.0 | 0.0 | 0.00 | 0.00 | 0.00 | 59 | 1039.5 |
| 20260506043331 | 17 | 263 | 0.0 | 1.6 | 0.00 | 0.00 | 0.00 | 58 | 1039.6 |
| 20260506042829 | 17 | 274 | 0.0 | 0.0 | 0.00 | 0.00 | 0.00 | 59 | 1039.5 |
| 20260506042328 | 17 | 276 | 0.0 | 1.6 | 0.00 | 0.00 | 0.00 | 60 | 1039.5 |
| 20260506041827 | 17 | 283 | 1.6 | 1.6 | 0.00 | 0.00 | 0.00 | 61 | 1039.5 |
| 20260506041323 | 16 | 290 | 1.6 | 3.2 | 0.00 | 0.00 | 0.00 | 61 | 1039.5 |
| 20260506040820 | 17 | 286 | 1.6 | 3.2 | 0.00 | 0.00 | 0.00 | 61 | 1039.6 |
| 20260506040318 | 17 | 273 | 0.0 | 1.6 | 0.00 | 0.00 | 0.00 | 60 | 1039.7 |
| 20260506035814 | 17 | 280 | 0.0 | 1.6 | 0.00 | 0.08 | 0.08 | 60 | 1039.7 |
| 20260506035311 | 17 | 271 | 1.6 | 1.6 | 0.00 | 0.08 | 0.08 | 61 | 1039.6 |
| 20260506034809 | 17 | 256 | 1.6 | 1.6 | 0.00 | 0.08 | 0.08 | 61 | 1039.6 |
| 20260506034306 | 17 | 264 | 0.0 | 0.0 | 0.00 | 0.08 | 0.08 | 59 | 1039.6 |
| 20260506033802 | 17 | 269 | 0.0 | 0.0 | 0.00 | 0.08 | 0.08 | 58 | 1039.5 |
| 20260506033259 | 17 | 272 | 0.0 | 0.0 | 0.00 | 0.08 | 0.08 | 57 | 1039.5 |
| 20260506032756 | 17 | 270 | 0.0 | 0.0 | 0.00 | 0.08 | 0.08 | 57 | 1039.6 |
| 20260506032253 | 17 | 272 | 0.0 | 1.6 | 0.00 | 0.08 | 0.08 | 57 | 1039.5 |
| 20260506031750 | 17 | 273 | 1.6 | 3.2 | 0.00 | 0.08 | 0.08 | 57 | 1039.4 |
| 20260506031247 | 17 | 280 | 1.6 | 3.2 | 0.00 | 0.08 | 0.08 | 57 | 1039.5 |
| 20260506030745 | 18 | 271 | 3.2 | 3.2 | 0.00 | 0.08 | 0.08 | 57 | 1039.5 |
| 20260506030243 | 18 | 283 | 3.2 | 3.2 | 0.00 | 0.08 | 0.08 | 55 | 1039.5 |
| 20260506025739 | 18 | 274 | 1.6 | 1.6 | 0.00 | 0.08 | 0.08 | 54 | 1039.4 |
| 20260506025235 | 18 | 271 | 1.6 | 1.6 | 0.00 | 0.08 | 0.08 | 54 | 1039.4 |
| 20260506024732 | 18 | 276 | 1.6 | 1.6 | 0.00 | 0.08 | 0.08 | 54 | 1039.3 |
| 20260506024228 | 19 | 275 | 1.6 | 1.6 | 0.00 | 0.08 | 0.08 | 54 | 1039.5 |
| 20260506023720 | 19 | 267 | 0.0 | 0.0 | 0.00 | 0.08 | 0.08 | 53 | 1039.5 |
| 20260506023217 | 19 | 269 | 1.6 | 1.6 | 0.00 | 0.08 | 0.08 | 52 | 1039.5 |
| 20260506022714 | 20 | 268 | 0.0 | 1.6 | 0.00 | 0.08 | 0.08 | 51 | 1039.5 |
| 20260506022212 | 20 | 263 | 1.6 | 1.6 | 0.00 | 0.08 | 0.08 | 51 | 1039.5 |
| 20260506021709 | 20 | 260 | 0.0 | 1.6 | 0.00 | 0.08 | 0.08 | 51 | 1039.7 |
| 20260506021206 | 20 | 254 | 1.6 | 1.6 | 0.00 | 0.08 | 0.08 | 50 | 1039.5 |
| 20260506020703 | 20 | 245 | 3.2 | 3.2 | 0.00 | 0.08 | 0.08 | 49 | 1039.5 |
| 20260506020201 | 20 | 250 | 3.2 | 4.8 | 0.00 | 0.08 | 0.08 | 49 | 1039.7 |
| 20260506015658 | 20 | 260 | 1.6 | 3.2 | 0.00 | 0.08 | 0.08 | 49 | 1039.5 |
| 20260506015156 | 20 | 260 | 3.2 | 4.8 | 0.00 | 0.08 | 0.08 | 48 | 1039.4 |
| 20260506014653 | 20 | 261 | 1.6 | 4.8 | 0.00 | 0.08 | 0.08 | 48 | 1039.4 |
| 20260506014148 | 20 | 248 | 3.2 | 3.2 | 0.00 | 0.08 | 0.08 | 48 | 1039.3 |
| 20260506013646 | 20 | 262 | 1.6 | 3.2 | 0.00 | 0.08 | 0.08 | 49 | 1039.5 |
| 20260506013143 | 20 | 266 | 0.0 | 3.2 | 0.00 | 0.08 | 0.08 | 49 | 1039.3 |
| 20260506012639 | 20 | 264 | 1.6 | 1.6 | 0.00 | 0.08 | 0.08 | 49 | 1039.2 |
| 20260506012135 | 21 | 264 | 1.6 | 1.6 | 0.00 | 0.08 | 0.08 | 48 | 1039.1 |
| 20260506011628 | 21 | 243 | 3.2 | 3.2 | 0.00 | 0.08 | 0.08 | 46 | 1038.9 |
| 20260506011124 | 21 | 244 | 1.6 | 3.2 | 0.00 | 0.08 | 0.08 | 46 | 1038.9 |
| 20260506010623 | 21 | 239 | 0.0 | 3.2 | 0.00 | 0.08 | 0.08 | 47 | 1038.9 |
| 20260506010119 | 21 | 254 | 0.0 | 1.6 | 0.00 | 0.08 | 0.08 | 46 | 1038.7 |
| 20260506005616 | 21 | 260 | 0.0 | 1.6 | 0.00 | 0.08 | 0.08 | 45 | 1038.8 |
| 20260506005113 | 21 | 254 | 1.6 | 1.6 | 0.00 | 0.08 | 0.08 | 44 | 1038.7 |
| 20260506004610 | 22 | 257 | 0.0 | 3.2 | 0.00 | 0.08 | 0.08 | 44 | 1038.7 |
| 20260506004106 | 22 | 225 | 6.4 | 11.3 | 0.00 | 0.08 | 0.08 | 43 | 1038.9 |
| 20260506003602 | 22 | 245 | 1.6 | 4.8 | 0.00 | 0.08 | 0.08 | 43 | 1038.7 |
| 20260506003059 | 22 | 256 | 0.0 | 3.2 | 0.00 | 0.08 | 0.08 | 43 | 1038.7 |
| 20260506002554 | 22 | 228 | 3.2 | 4.8 | 0.00 | 0.08 | 0.08 | 43 | 1038.7 |
| 20260506002051 | 22 | 255 | 1.6 | 3.2 | 0.00 | 0.08 | 0.08 | 43 | 1038.6 |
| 20260506001547 | 22 | 259 | 1.6 | 3.2 | 0.00 | 0.08 | 0.08 | 43 | 1038.6 |
| 20260506001045 | 22 | 249 | 3.2 | 3.2 | 0.00 | 0.08 | 0.08 | 43 | 1038.6 |
| 20260506000542 | 22 | 258 | 1.6 | 4.8 | 0.00 | 0.08 | 0.08 | 43 | 1038.6 |
| 20260506000039 | 22 | 247 | 1.6 | 3.2 | 0.00 | 0.08 | 0.08 | 44 | 1038.5 |
| 20260505235537 | 22 | 245 | 1.6 | 3.2 | 0.00 | 0.08 | 0.08 | 44 | 1038.4 |
| 20260505235034 | 22 | 241 | 1.6 | 4.8 | 0.00 | 0.08 | 0.08 | 43 | 1038.3 |
| 20260505234531 | 22 | 249 | 3.2 | 9.7 | 0.00 | 0.08 | 0.08 | 42 | 1038.3 |
| 20260505234027 | 22 | 224 | 4.8 | 4.8 | 0.00 | 0.08 | 0.08 | 43 | 1038.5 |
| 20260505233525 | 22 | 258 | 3.2 | 9.7 | 0.00 | 0.08 | 0.08 | 43 | 1038.1 |
| 20260505233022 | 22 | 258 | 3.2 | 9.7 | 0.00 | 0.08 | 0.08 | 43 | 1038.3 |
| 20260505232520 | 22 | 209 | 3.2 | 4.8 | 0.00 | 0.08 | 0.08 | 44 | 1038.3 |
| 20260505232018 | 22 | 241 | 3.2 | 4.8 | 0.00 | 0.08 | 0.08 | 44 | 1038.3 |